Location: Bouchavesnes-Bergen
(49.9859°N, 2.9203°E)
Time: 22:41:25
(UTC+00:00)

IDEFIX/ARIANE 42P - Pass Details

Date: 09 March 2021
Orbit: 784 x 803 km, 98.4° (Epoch: 13 April)

Event Time Altitude Azimuth Distance (km) Brightness Sun altitude
Rises 02:14:03 0° 19° (NNE) 3,301 6.6 -36.3°
Reaches altitude 10° 02:16:30 10° 25° (NNE) 2,364 5.7 -36.0°
Enters shadow 02:19:43 33° 51° (NE) 1,308 4.1 -35.7°
